Regional Weather Roundup
Issued by NWS Wilmington, NC

Home | Current Version | Previous Version | Text Only | Print | Product List | Glossary On
Versions: 1 2 3 4 5 6 7 8 9 10 11 12 13 14 15 16 17 18 19 20 21 22 23 24 25 26 27 28
000
ASUS42 KILM 190613
RWRILM
RWRILM
REGIONAL HOURLY WEATHER ROUNDUP
NATIONAL WEATHER SERVICE WILMINGTON NC
200 AM EDT THU OCT 19 2017

NOTE: "FAIR" INDICATES FEW OR NO CLOUDS BELOW 12,000 FEET WITH NO
SIGNIFICANT WEATHER AND/OR OBSTRUCTIONS TO VISIBILITY.

...............WFO WILMINGTON COUNTY WARNING AREA...............

......COASTAL NC AND SC COUNTIES......

CITY           SKY/WX    TMP DP  RH WIND       PRES   REMARKS
WILMINGTON     CLEAR     57  54  89 NE8       30.26F
N MYRTLE BEACH CLEAR     57  53  86 N7        30.25S
MYRTLE BEACH   CLEAR     57  52  83 N6        30.26F

......INLAND NC AND SC COUNTIES.......

CITY           SKY/WX    TMP DP  RH WIND       PRES   REMARKS
LUMBERTON      CLEAR     47  46  97 NE5       30.28S
ELIZABETHTOWN  NOT AVBL
WHITEVILLE     CLEAR     54  50  86 CALM      30.27S
FLORENCE       CLEAR     52  46  80 N5        30.28F
DARLINGTON     CLEAR     46  44  93 N5        30.29F
KINGSTREE      FAIR      48  46  93 CALM      30.26F
HARTSVILLE     FAIR      48  43  81 NE3       30.28F
BENNETTSVILLE  FAIR      45  45 100 CALM      30.29S
CONWAY         FAIR      52  52 100 CALM      30.26F
GEORGETOWN     NOT AVBL
MARION         FAIR     N/A N/A N/A NE3       30.27F

....................REST OF NORTH CAROLINA......................

.........EASTERN NC.........

CITY           SKY/WX    TMP DP  RH WIND       PRES   REMARKS
CAPE HATTERAS  MOCLDY    67  63  87 NE6       30.26S
JACKSONVILLE   PTCLDY    54  53  97 N5        30.28F
MOREHEAD CITY  PTCLDY    62  59  90 N8        30.26S
KENANSVILLE    CLEAR     48  46  93 CALM      30.29S
NEW BERN       CLOUDY    59  57  93 N5        30.29F
ELIZABETH CITY CLEAR     59  56  89 NE8       30.30F

.........CENTRAL NC.........

CITY           SKY/WX    TMP DP  RH WIND       PRES   REMARKS
RALEIGH DURHAM PTCLDY    44  44 100 CALM      30.32S
ROCKY MOUNT    CLEAR     48  48 100 CALM      30.30F
ROANOKE RAPIDS NOT AVBL
FAYETTEVILLE   CLEAR     50  48  93 N7        30.28F
HOFFMAN        CLEAR     42  41  97 N3        30.30S

.........WESTERN NC.........

CITY           SKY/WX    TMP DP  RH WIND       PRES   REMARKS
CHARLOTTE      PTCLDY    44  44 100 N5        30.31F
GREENSBORO     CLEAR     45  42  89 CALM      30.30F
HICKORY        NOT AVBL
BOONE          NOT AVBL
ASHEVILLE      NOT AVBL

.....................REST OF SOUTH CAROLINA.....................

.........EASTERN SC.........

CITY           SKY/WX    TMP DP  RH WIND       PRES   REMARKS
CHARLESTON     CLEAR     58  55  90 N7        30.24F
BEAUFORT MCAS  CLEAR     60  57  89 MISG      30.24F
HILTON HEAD    CLEAR     66  57  72 N13       30.23F

.........CENTRAL SC.........

CITY           SKY/WX    TMP DP  RH WIND       PRES   REMARKS
COLUMBIA       CLEAR     47  45  93 CALM      30.28S
ORANGEBURG     CLEAR     49  46  90 CALM      30.27F
SUMTER SHAW    CLEAR     49  41  73 NE7       30.25F

.........WESTERN SC.........

CITY           SKY/WX    TMP DP  RH WIND       PRES   REMARKS
GREENVILLE     NOT AVBL
ROCK HILL      CLEAR     42  42 100 CALM      30.31S
ANDERSON       CLEAR     48  44  86 NE3       30.30F
CLEMSON        NOT AVBL
GREENWOOD      CLEAR     43  42  97 N3        30.31S


...................COASTAL AND OFFSHORE REPORTS..................

................LOCAL PIERS AND NC RESERVE................


STATION/POSITION TIME  SKY/WX   TEMP    WIND        PRES    VSBY
                                AIR SEA DIR/SP/G
                 (UTC)          (F)     (DEG/KT/KT) (MB)    (MI)
JOHNY MRCER PIER 0542               74  360/ 10/ 11 1023.5F
NC RESRV MASNBRO 0445            61      50/  3     1025.0
OCEAN CREST PIER NOT AVBL
SPRINGMAID  PIER 0542                               1023.6F


................COASTAL AND OFFSHORE BUOYS................


STATION/POSITION TIME  SKY/WX   TEMP    WIND        PRES    VSBY
                                AIR SEA DIR/SP/G
                 (UTC)          (F)     (DEG/KT/KT) (MB)    (MI)
DIMNDSHOAL 41025 0550            74 82   90/ 10/ 14 1024.0S
WVE H/P(F/S)=  5/ 9 SWL H/P/D(F/S/D)=  5/100/ 9

CAPE LOOKOUT     0600            64     360/ 12/ 14 1023.9F
ONSLOW BAY 41036 NOT AVBL
ONSLOW BAY 41064 0508            70      40/ 17/ 21 1023.7
ONSLOW BAY 41159 NOT AVBL
MASNBO INL 41110 0559               74                N/A
WVE H/P(F/S)=  5/10 SWL H/P/D(F/S/D)=  2/130/11

WILM HARBR 41108 0600               74                N/A
WVE H/P(F/S)=  4/ 9 SWL H/P/D(F/S/D)=  2/140/11

27SE WRITB 41037 0508            71 77   70/ 17/ 23 1023.5F
FRYING PAN 41013 0600            72 76   30/ 19/ 23 1022.4
SUNST NRSH 41024 0508            63 74   40/ 10/ 14 1024.2F
CAPRS NRSH 41029 0508            64 74   20/ 16/ 21 1023.3F
EDISTO     41004 0600            74 79   30/ 19/ 23 1021.8


..........OFFSHORE BUOYS BEYOND 100 NM OFFSHORE...........
.....IN A TRIANGLE---HAT TO BERMUDA TO BAHAMAS TO HAT.....


STATION/POSITION TIME  SKY/WX   TEMP    WIND        PRES    VSBY
                                AIR SEA DIR/SP/G
                 (UTC)          (F)     (DEG/KT/KT) (MB)    (MI)
150E HAT   41001 NOT AVBL
W BERMUDA  41048 0600            73 79   50/ 17/ 23 1018.8
ATLANTIC S 41049 0550            78 81  160/  8/ 10 1019.9F
WVE H/P(F/S)=  6/ 9 SWL H/P/D(F/S/D)=  5/140/ 9

E BAHAMAS  41046 0600            82 82  140/ 12/ 16 1017.5
NE BAHAMAS 41047 0600            77 82  180/ 12/ 14 1016.3
120E CANVRL41010 NOT AVBL

END




USA.gov is the U.S. government's official web portal to all federal, state and local government web resources and services.